LNWOW ENSO-ENBM

Flight info

Callsign LNWOW
Flight time 1h 10m
Altitude 6000
Route STD STAY1/0020 STD DCT FLS STAY2/0030 FLS DCT DIRBI VFR DALE DCT EVANGER DCT BULKEN DCT VOSS
Aircraft DA42/L-SBDGRY/B2E

Departure

Time 2026-04-26 19:02
Airport Stord Airport, Sørstokken (ENSO)

Arrival

Time 2026-04-26 20:12
Airport Bømoen Airfield (ENBM)
Time Latitude Longitude Altitude Speed Heading
2026-04-26 18:46 59.79424 5.33984 155 ft 0 kts 238°
2026-04-26 18:55 59.79428 5.33962 155 ft 4 kts 305°
2026-04-26 18:56 59.79447 5.33918 155 ft 6 kts 313°
2026-04-26 18:56 59.79467 5.33866 155 ft 4 kts 285°
2026-04-26 18:56 59.79467 5.33865 155 ft 0 kts 286°
2026-04-26 19:00 59.79459 5.33828 155 ft 12 kts 234°
2026-04-26 19:00 59.79390 5.33814 156 ft 14 kts 145°
2026-04-26 19:00 59.79298 5.33939 157 ft 18 kts 145°
2026-04-26 19:00 59.79207 5.34073 158 ft 10 kts 139°
2026-04-26 19:01 59.79167 5.34107 157 ft 4 kts 134°
2026-04-26 19:01 59.79172 5.34118 157 ft 0 kts 324°
2026-04-26 19:01 59.79274 5.33974 158 ft 48 kts 325°
2026-04-26 19:02 59.79662 5.33436 261 ft 77 kts 325°
2026-04-26 19:02 59.80117 5.32842 594 ft 80 kts 324°
2026-04-26 19:02 59.80572 5.32189 926 ft 81 kts 322°
2026-04-26 19:02 59.80871 5.31752 1157 ft 81 kts 323°
2026-04-26 19:03 59.81475 5.30806 1583 ft 85 kts 323°
2026-04-26 19:03 59.81933 5.30078 1974 ft 84 kts 327°
2026-04-26 19:03 59.82404 5.29400 2350 ft 86 kts 328°
2026-04-26 19:03 59.82909 5.28742 2759 ft 88 kts 330°
2026-04-26 19:04 59.83431 5.28073 3137 ft 90 kts 330°
2026-04-26 19:04 59.83966 5.27390 3521 ft 92 kts 330°
2026-04-26 19:04 59.84512 5.26701 3891 ft 93 kts 330°
2026-04-26 19:04 59.85087 5.25986 3986 ft 106 kts 331°
2026-04-26 19:05 59.86471 5.24237 3998 ft 126 kts 329°
2026-04-26 19:05 59.87196 5.23215 4002 ft 130 kts 324°
2026-04-26 19:05 59.87906 5.22107 3995 ft 132 kts 323°
2026-04-26 19:06 59.88638 5.20976 3999 ft 134 kts 325°
2026-04-26 19:06 59.89398 5.19894 3995 ft 135 kts 326°
2026-04-26 19:06 59.90170 5.18819 3998 ft 136 kts 327°
2026-04-26 19:06 59.90979 5.17850 3999 ft 135 kts 330°
2026-04-26 19:07 59.91782 5.16870 3999 ft 135 kts 329°
2026-04-26 19:07 59.92584 5.15882 4004 ft 136 kts 329°
2026-04-26 19:07 59.93381 5.14873 3997 ft 136 kts 327°
2026-04-26 19:07 59.94153 5.13782 4001 ft 136 kts 325°
2026-04-26 19:08 59.94922 5.12675 4000 ft 137 kts 325°
2026-04-26 19:08 59.95692 5.11566 4002 ft 136 kts 325°
2026-04-26 19:08 59.96459 5.10457 4002 ft 136 kts 325°
2026-04-26 19:08 59.97220 5.09377 4003 ft 136 kts 326°
2026-04-26 19:09 59.97997 5.08294 4003 ft 136 kts 326°
2026-04-26 19:09 59.98776 5.07213 4007 ft 136 kts 326°
2026-04-26 19:09 59.99557 5.06130 4005 ft 137 kts 326°
2026-04-26 19:09 60.00336 5.05042 4010 ft 137 kts 326°
2026-04-26 19:10 60.01117 5.03957 4008 ft 136 kts 326°
2026-04-26 19:10 60.01763 5.02590 4006 ft 140 kts 294°
2026-04-26 19:10 60.01742 5.00662 4000 ft 145 kts 248°
2026-04-26 19:10 60.01028 4.99283 4002 ft 147 kts 203°
2026-04-26 19:11 60.00018 4.98974 4007 ft 147 kts 184°
2026-04-26 19:11 59.99006 4.98885 4007 ft 148 kts 182°
2026-04-26 19:11 59.97980 4.98809 4007 ft 148 kts 182°
2026-04-26 19:11 59.96956 4.98738 4007 ft 147 kts 182°
2026-04-26 19:12 59.95931 4.98667 4005 ft 147 kts 182°
2026-04-26 19:12 59.94909 4.98597 4004 ft 147 kts 182°
2026-04-26 19:12 59.93885 4.98528 4002 ft 147 kts 182°
2026-04-26 19:12 59.92863 4.98461 4004 ft 147 kts 182°
2026-04-26 19:13 59.91841 4.98395 4001 ft 147 kts 182°
2026-04-26 19:13 59.90817 4.98329 4002 ft 148 kts 182°
2026-04-26 19:13 59.89791 4.98263 4001 ft 148 kts 182°
2026-04-26 19:13 59.88777 4.98200 3995 ft 148 kts 182°
2026-04-26 19:14 59.87751 4.98138 3999 ft 148 kts 182°
2026-04-26 19:14 59.86721 4.98074 3999 ft 148 kts 182°
2026-04-26 19:14 59.85689 4.98011 3996 ft 148 kts 180°
2026-04-26 19:14 59.85030 4.98310 3992 ft 148 kts 151°
2026-04-26 19:15 59.84225 5.00406 3996 ft 144 kts 110°
2026-04-26 19:15 59.83876 5.02271 3994 ft 144 kts 107°
2026-04-26 19:15 59.83538 5.04142 3994 ft 144 kts 107°
2026-04-26 19:15 59.83200 5.06017 3994 ft 144 kts 107°
2026-04-26 19:16 59.82867 5.07866 3997 ft 144 kts 107°
2026-04-26 19:16 59.82529 5.09743 3995 ft 144 kts 107°
2026-04-26 19:16 59.82186 5.11649 3993 ft 152 kts 107°
2026-04-26 19:16 59.81819 5.13713 3996 ft 164 kts 107°
2026-04-26 19:17 59.81432 5.15899 3996 ft 171 kts 107°
2026-04-26 19:17 59.81034 5.18151 3992 ft 174 kts 107°
2026-04-26 19:17 59.80633 5.20428 3989 ft 175 kts 108°
2026-04-26 19:17 59.80235 5.22691 3993 ft 172 kts 107°
2026-04-26 19:18 59.79843 5.24906 3989 ft 164 kts 108°
2026-04-26 19:18 59.79473 5.26966 3993 ft 154 kts 107°
2026-04-26 19:18 59.79131 5.28932 4178 ft 143 kts 103°
2026-04-26 19:18 59.78905 5.30736 4501 ft 134 kts 100°
2026-04-26 19:19 59.78686 5.32586 4727 ft 133 kts 100°
2026-04-26 19:19 59.78416 5.34287 4982 ft 139 kts 118°
2026-04-26 19:19 59.77616 5.35505 4993 ft 154 kts 163°
2026-04-26 19:19 59.76593 5.35333 5001 ft 148 kts 210°
2026-04-26 19:20 59.75948 5.33887 4997 ft 139 kts 256°
2026-04-26 19:20 59.75903 5.32669 4999 ft 133 kts 285°
2026-04-26 19:20 59.76641 5.30863 4994 ft 129 kts 329°
2026-04-26 19:20 59.77412 5.29970 4995 ft 128 kts 331°
2026-04-26 19:21 59.78176 5.29060 4993 ft 128 kts 330°
2026-04-26 19:21 59.78912 5.28180 4985 ft 121 kts 330°
2026-04-26 19:21 59.79606 5.27348 4982 ft 113 kts 330°
2026-04-26 19:21 59.80261 5.26568 4981 ft 107 kts 330°
2026-04-26 19:22 59.80954 5.26358 4989 ft 102 kts 15°
2026-04-26 19:22 59.81483 5.27252 4992 ft 104 kts 60°
2026-04-26 19:22 59.81518 5.28674 4998 ft 108 kts 106°
2026-04-26 19:22 59.81106 5.29906 5008 ft 107 kts 123°
2026-04-26 19:23 59.80653 5.31132 5009 ft 114 kts 123°
2026-04-26 19:23 59.80156 5.32383 5000 ft 122 kts 136°
2026-04-26 19:23 59.79476 5.33429 5003 ft 126 kts 143°
2026-04-26 19:23 59.78751 5.34433 5009 ft 128 kts 144°
2026-04-26 19:24 59.78058 5.35540 4995 ft 128 kts 123°
2026-04-26 19:24 59.77564 5.37006 5006 ft 128 kts 123°
2026-04-26 19:24 59.76426 5.39759 5005 ft 130 kts 128°
2026-04-26 19:25 59.75828 5.41117 4990 ft 131 kts 129°
2026-04-26 19:25 59.75422 5.42033 4801 ft 135 kts 129°
2026-04-26 19:25 59.74571 5.43898 4449 ft 137 kts 130°
2026-04-26 19:25 59.73927 5.45269 4192 ft 138 kts 130°
2026-04-26 19:26 59.73273 5.46663 3929 ft 138 kts 130°
2026-04-26 19:26 59.72629 5.48073 3673 ft 138 kts 129°
2026-04-26 19:26 59.71994 5.49488 3403 ft 137 kts 129°
2026-04-26 19:26 59.71370 5.50915 3147 ft 137 kts 128°
2026-04-26 19:27 59.70746 5.52348 2882 ft 138 kts 128°
2026-04-26 19:27 59.70118 5.53778 2639 ft 137 kts 128°
2026-04-26 19:27 59.69421 5.55089 2490 ft 141 kts 152°
2026-04-26 19:27 59.68507 5.55281 2492 ft 134 kts 197°
2026-04-26 19:28 59.67787 5.54232 2494 ft 128 kts 242°
2026-04-26 19:28 59.67629 5.52584 2489 ft 121 kts 286°
2026-04-26 19:28 59.68059 5.51247 2501 ft 114 kts 317°
2026-04-26 19:28 59.68614 5.50166 2492 ft 108 kts 319°
2026-04-26 19:29 59.69127 5.49199 2489 ft 96 kts 320°
2026-04-26 19:29 59.69602 5.48333 2490 ft 90 kts 321°
2026-04-26 19:29 59.70074 5.47498 2499 ft 92 kts 322°
2026-04-26 19:29 59.70567 5.46665 2490 ft 94 kts 322°
2026-04-26 19:30 59.71062 5.45806 2451 ft 98 kts 321°
2026-04-26 19:30 59.71582 5.44920 2318 ft 99 kts 323°
2026-04-26 19:30 59.72110 5.44040 2154 ft 99 kts 322°
2026-04-26 19:30 59.72469 5.43484 2051 ft 98 kts 325°
2026-04-26 19:31 59.73212 5.42409 1805 ft 100 kts 327°
2026-04-26 19:31 59.73784 5.41637 1598 ft 100 kts 326°
2026-04-26 19:31 59.74338 5.40813 1375 ft 99 kts 324°
2026-04-26 19:31 59.74894 5.40049 1145 ft 94 kts 327°
2026-04-26 19:32 59.75423 5.39349 959 ft 93 kts 325°
2026-04-26 19:32 59.75935 5.38632 1294 ft 86 kts 323°
2026-04-26 19:32 59.76443 5.37875 1603 ft 93 kts 324°
2026-04-26 19:32 59.76950 5.37096 2006 ft 93 kts 324°
2026-04-26 19:33 59.77459 5.36297 2388 ft 94 kts 324°
2026-04-26 19:33 59.77978 5.35499 2719 ft 96 kts 328°
2026-04-26 19:33 59.78530 5.34736 3030 ft 98 kts 327°
2026-04-26 19:33 59.79083 5.33932 3365 ft 99 kts 326°
2026-04-26 19:34 59.79647 5.33120 3688 ft 101 kts 326°
2026-04-26 19:34 59.80217 5.32304 3998 ft 104 kts 327°
2026-04-26 19:34 59.80904 5.31485 4001 ft 127 kts 345°
2026-04-26 19:34 59.81808 5.31147 4005 ft 137 kts 352°
2026-04-26 19:35 59.82775 5.30874 4006 ft 143 kts 352°
2026-04-26 19:35 59.83775 5.30600 4006 ft 147 kts 352°
2026-04-26 19:35 59.84795 5.30323 4006 ft 149 kts 352°
2026-04-26 19:35 59.85825 5.30046 4005 ft 150 kts 352°
2026-04-26 19:36 59.86860 5.29767 4010 ft 150 kts 352°
2026-04-26 19:36 59.87547 5.29583 3999 ft 151 kts 352°
2026-04-26 19:36 59.88935 5.29214 4003 ft 151 kts 352°
2026-04-26 19:36 59.89960 5.28941 4003 ft 151 kts 352°
2026-04-26 19:37 59.91000 5.28665 4006 ft 151 kts 352°
2026-04-26 19:37 59.92040 5.28385 4007 ft 151 kts 352°
2026-04-26 19:37 59.93082 5.28102 4005 ft 151 kts 352°
2026-04-26 19:37 59.94122 5.27818 4006 ft 151 kts 352°
2026-04-26 19:38 59.95162 5.27534 4012 ft 151 kts 352°
2026-04-26 19:38 59.96209 5.27250 4012 ft 152 kts 352°
2026-04-26 19:38 59.97256 5.26965 4011 ft 152 kts 352°
2026-04-26 19:38 59.98288 5.26686 4010 ft 152 kts 352°
2026-04-26 19:39 59.99336 5.26404 4010 ft 152 kts 352°
2026-04-26 19:39 60.00384 5.26124 4009 ft 152 kts 352°
2026-04-26 19:39 60.01435 5.25842 4011 ft 152 kts 352°
2026-04-26 19:39 60.02483 5.25560 4012 ft 152 kts 352°
2026-04-26 19:40 60.03530 5.25295 4010 ft 152 kts 358°
2026-04-26 19:40 60.04581 5.25584 3911 ft 151 kts 12°
2026-04-26 19:40 60.05597 5.26038 3782 ft 148 kts 12°
2026-04-26 19:40 60.06583 5.26485 3659 ft 146 kts 12°
2026-04-26 19:41 60.07573 5.26931 3525 ft 146 kts 12°
2026-04-26 19:41 60.08560 5.27371 3391 ft 145 kts 11°
2026-04-26 19:41 60.09550 5.27746 3257 ft 144 kts 10°
2026-04-26 19:41 60.10205 5.27943 3167 ft 144 kts
2026-04-26 19:42 60.11532 5.27696 3010 ft 141 kts 352°
2026-04-26 19:42 60.12476 5.27423 3011 ft 134 kts 352°
2026-04-26 19:42 60.13379 5.27143 3013 ft 129 kts 351°
2026-04-26 19:42 60.14255 5.26851 3011 ft 126 kts 351°
2026-04-26 19:43 60.15125 5.26560 2925 ft 128 kts 351°
2026-04-26 19:43 60.15987 5.26281 2754 ft 126 kts 351°
2026-04-26 19:43 60.16852 5.25990 2580 ft 126 kts 351°
2026-04-26 19:43 60.17710 5.25706 2404 ft 124 kts 351°
2026-04-26 19:44 60.18558 5.25422 2233 ft 123 kts 351°
2026-04-26 19:44 60.19396 5.25143 2062 ft 121 kts 351°
2026-04-26 19:44 60.20224 5.24866 1890 ft 120 kts 351°
2026-04-26 19:44 60.21043 5.24593 1720 ft 120 kts 351°
2026-04-26 19:45 60.21864 5.24319 1552 ft 119 kts 351°
2026-04-26 19:45 60.22680 5.24047 1384 ft 118 kts 350°
2026-04-26 19:45 60.23484 5.23778 1212 ft 115 kts 350°
2026-04-26 19:45 60.24214 5.23535 1043 ft 102 kts 349°
2026-04-26 19:46 60.24887 5.23312 894 ft 94 kts 350°
2026-04-26 19:46 60.25517 5.23101 761 ft 92 kts 349°
2026-04-26 19:46 60.26152 5.22893 622 ft 93 kts 347°
2026-04-26 19:46 60.26776 5.22689 497 ft 90 kts 347°
2026-04-26 19:47 60.27388 5.22483 374 ft 89 kts 347°
2026-04-26 19:47 60.27788 5.22347 297 ft 86 kts 348°
2026-04-26 19:47 60.28514 5.22096 159 ft 63 kts 347°
2026-04-26 19:47 60.28870 5.21968 157 ft 60 kts 351°
2026-04-26 19:48 60.29405 5.21792 278 ft 85 kts 349°
2026-04-26 19:48 60.29980 5.21613 646 ft 86 kts 348°
2026-04-26 19:48 60.30564 5.21317 1016 ft 88 kts 347°
2026-04-26 19:48 60.31173 5.21506 1329 ft 94 kts 28°
2026-04-26 19:49 60.31532 5.22696 1485 ft 111 kts 81°
2026-04-26 19:49 60.31520 5.24315 1546 ft 123 kts 83°
2026-04-26 19:49 60.31580 5.26112 1519 ft 130 kts 81°
2026-04-26 19:49 60.31692 5.27947 1475 ft 134 kts 77°
2026-04-26 19:50 60.31950 5.29727 1471 ft 131 kts 60°
2026-04-26 19:50 60.32438 5.31260 1469 ft 129 kts 50°
2026-04-26 19:50 60.32970 5.32718 1461 ft 130 kts 51°
2026-04-26 19:50 60.33483 5.34180 1480 ft 128 kts 51°
2026-04-26 19:51 60.33928 5.35762 1440 ft 133 kts 68°
2026-04-26 19:51 60.34112 5.37603 1396 ft 133 kts 76°
2026-04-26 19:51 60.34353 5.39364 1458 ft 129 kts 65°
2026-04-26 19:51 60.34715 5.40986 1556 ft 125 kts 60°
2026-04-26 19:52 60.35128 5.42491 1696 ft 121 kts 54°
2026-04-26 19:52 60.35646 5.43836 1715 ft 123 kts 38°
2026-04-26 19:52 60.36381 5.44700 1786 ft 122 kts 22°
2026-04-26 19:52 60.37148 5.45394 1900 ft 121 kts 21°
2026-04-26 19:53 60.37947 5.46027 2003 ft 128 kts 17°
2026-04-26 19:53 60.38842 5.46347 2030 ft 135 kts
2026-04-26 19:53 60.39804 5.46322 2010 ft 140 kts 357°
2026-04-26 19:53 60.40782 5.46201 2011 ft 142 kts 355°
2026-04-26 19:54 60.41769 5.46032 2026 ft 143 kts 355°
2026-04-26 19:54 60.42758 5.45934 2049 ft 142 kts 358°
2026-04-26 19:54 60.43703 5.46205 2154 ft 139 kts 29°
2026-04-26 19:54 60.44170 5.47903 2127 ft 149 kts 89°
2026-04-26 19:55 60.43720 5.49782 2166 ft 151 kts 128°
2026-04-26 19:55 60.43256 5.51447 2547 ft 126 kts 100°
2026-04-26 19:55 60.43314 5.53214 2638 ft 130 kts 76°
2026-04-26 19:55 60.43438 5.54962 2895 ft 122 kts 84°
2026-04-26 19:56 60.43536 5.56708 2992 ft 127 kts 80°
2026-04-26 19:56 60.43760 5.58477 3054 ft 134 kts 71°
2026-04-26 19:56 60.44072 5.60367 3020 ft 149 kts 70°
2026-04-26 19:56 60.44423 5.62407 3051 ft 155 kts 67°
2026-04-26 19:57 60.44883 5.64374 3129 ft 157 kts 64°
2026-04-26 19:57 60.45365 5.66391 3232 ft 156 kts 63°
2026-04-26 19:57 60.45825 5.68249 3582 ft 143 kts 62°
2026-04-26 19:57 60.46237 5.69895 4136 ft 119 kts 62°
2026-04-26 19:58 60.46568 5.71267 4669 ft 103 kts 62°
2026-04-26 19:58 60.46878 5.72595 4968 ft 110 kts 62°
2026-04-26 19:58 60.47249 5.74172 4962 ft 136 kts 63°
2026-04-26 19:58 60.47684 5.76006 4963 ft 151 kts 63°
2026-04-26 19:59 60.48154 5.77981 4954 ft 158 kts 63°
2026-04-26 19:59 60.48638 5.80010 4950 ft 161 kts 63°
2026-04-26 19:59 60.49131 5.82063 4947 ft 162 kts 63°
2026-04-26 19:59 60.49617 5.84103 4947 ft 164 kts 63°
2026-04-26 20:00 60.50113 5.86187 4947 ft 164 kts 63°
2026-04-26 20:00 60.50613 5.88276 4948 ft 165 kts 63°
2026-04-26 20:00 60.51112 5.90365 4947 ft 163 kts 63°
2026-04-26 20:00 60.51597 5.92399 4946 ft 158 kts 63°
2026-04-26 20:01 60.52071 5.94390 4945 ft 155 kts 63°
2026-04-26 20:01 60.52539 5.96348 4945 ft 153 kts 63°
2026-04-26 20:01 60.53004 5.98296 4943 ft 153 kts 63°
2026-04-26 20:01 60.53461 6.00211 4940 ft 153 kts 63°
2026-04-26 20:02 60.53923 6.02142 4942 ft 152 kts 63°
2026-04-26 20:02 60.54382 6.04071 4941 ft 152 kts 63°
2026-04-26 20:02 60.54841 6.05992 4943 ft 151 kts 63°
2026-04-26 20:02 60.55144 6.07258 4941 ft 150 kts 63°
2026-04-26 20:03 60.55754 6.09814 4942 ft 150 kts 63°
2026-04-26 20:03 60.56211 6.11723 4940 ft 150 kts 63°
2026-04-26 20:03 60.56664 6.13610 4937 ft 151 kts 63°
2026-04-26 20:03 60.57132 6.15529 4922 ft 152 kts 59°
2026-04-26 20:04 60.57837 6.17166 4782 ft 158 kts 35°
2026-04-26 20:04 60.58809 6.18169 4702 ft 155 kts 18°
2026-04-26 20:04 60.59849 6.18810 4576 ft 157 kts 17°
2026-04-26 20:04 60.60832 6.19750 4430 ft 155 kts 31°
2026-04-26 20:05 60.61707 6.21031 4256 ft 155 kts 37°
2026-04-26 20:05 60.62429 6.22671 3934 ft 159 kts 61°
2026-04-26 20:05 60.62743 6.24828 3617 ft 159 kts 82°
2026-04-26 20:05 60.62745 6.27010 3346 ft 155 kts 95°
2026-04-26 20:06 60.62473 6.29113 3046 ft 154 kts 114°
2026-04-26 20:06 60.61901 6.30926 2784 ft 151 kts 129°
2026-04-26 20:06 60.61220 6.32559 2536 ft 149 kts 123°
2026-04-26 20:06 60.60867 6.34448 2429 ft 142 kts 97°
2026-04-26 20:07 60.60962 6.36417 2313 ft 141 kts 72°
2026-04-26 20:07 60.61326 6.38274 2172 ft 141 kts 65°
2026-04-26 20:07 60.61690 6.40016 2021 ft 127 kts 67°
2026-04-26 20:07 60.62005 6.41676 1838 ft 124 kts 66°
2026-04-26 20:08 60.62355 6.43226 1759 ft 119 kts 62°
2026-04-26 20:08 60.62681 6.44770 1727 ft 119 kts 70°
2026-04-26 20:08 60.62822 6.46427 1709 ft 119 kts 85°
2026-04-26 20:08 60.62890 6.48011 1779 ft 106 kts 83°
2026-04-26 20:09 60.62950 6.49533 1738 ft 109 kts 86°
2026-04-26 20:09 60.62983 6.51059 1743 ft 106 kts 84°
2026-04-26 20:09 60.63249 6.52267 1705 ft 94 kts 37°
2026-04-26 20:09 60.63849 6.52690 1290 ft 93 kts 352°
2026-04-26 20:10 60.64149 6.51711 872 ft 103 kts 251°
2026-04-26 20:10 60.63963 6.50221 1060 ft 111 kts 266°
2026-04-26 20:10 60.63940 6.48628 1239 ft 118 kts 268°
2026-04-26 20:10 60.64049 6.46964 1413 ft 120 kts 282°
2026-04-26 20:11 60.64102 6.45268 1418 ft 118 kts 252°
2026-04-26 20:11 60.63459 6.44592 1142 ft 118 kts 158°
2026-04-26 20:11 60.63186 6.45933 932 ft 110 kts 66°
2026-04-26 20:12 60.63813 6.48205 684 ft 92 kts 83°
2026-04-26 20:12 60.63858 6.49447 417 ft 79 kts 85°
2026-04-26 20:12 60.63888 6.50271 412 ft 41 kts 86°
2026-04-26 20:12 60.63891 6.50560 410 ft 14 kts 82°
2026-04-26 20:13 60.63906 6.50786 410 ft 16 kts 85°
2026-04-26 20:13 60.63908 6.50995 416 ft 13 kts 105°
2026-04-26 20:13 60.63909 6.51034 417 ft 11 kts 286°
2026-04-26 20:13 60.63903 6.50736 410 ft 29 kts 265°
2026-04-26 20:14 60.63891 6.50281 412 ft 31 kts 266°
2026-04-26 20:14 60.63872 6.49841 412 ft 23 kts 266°
2026-04-26 20:14 60.63864 6.49607 409 ft 12 kts 265°
2026-04-26 20:14 60.63901 6.49535 411 ft 8 kts 354°
2026-04-26 20:15 60.63945 6.49509 410 ft 3 kts 300°
2026-04-26 20:15 60.63943 6.49508 410 ft 0 kts 53°